Other Public Products
Issued by NWS Grand Forks, ND

Home | Current Version | Previous Version | Text Only | Print | Product List | Glossary On
Versions: 1 2 3 4 5 6 7 8 9 10 11 12 13 14 15 16 17 18 19 20 21 22 23 24 25 26 27 28 29 30 31 32 33 34 35 36 37 38 39 40 41 42 43 44 45 46 47 48 49 50
000
FPUS83 KFGF 220731
OPUFGF
PRAIRIE TO PINES WEATHER ROUNDUP
NATIONAL WEATHER SERVICE EASTERN NORTH DAKOTA/GRAND FORKS ND
200 AM CDT FRI AUG 22 2014

 **SATELLITE DATA USED TO AUGMENT SKY COVER AT AUTOMATED STATIONS**
 *****  WEATHER ACROSS EASTERN NORTH DAKOTA  *****

CITY           SKY/WX    TMP DP  RH WIND       PRES   REMARKS
GRAND FORKS    CLOUDY    68  67  96 N8        29.88S
GRAND FORKS AF CLOUDY    68  68 100 N6        29.90S
GRAND CITY NWS   N/A     55 N/A N/A N5          N/A
BUXTON           N/A     69  68  99 NW6         N/A
DEVILS LAKE    CLOUDY    66  61  82 N10       29.93S
FARGO          FOG       66  65  96 CALM      29.88S VSB 1/2
WAHPETON ARPT  CLOUDY    64  63  94 CALM      29.88S VSB 3/4
$$

 *****  WEATHER ACROSS CENTRAL AND WESTERN NORTH DAKOTA  *****

CITY           SKY/WX    TMP DP  RH WIND       PRES   REMARKS
JAMESTOWN      CLEAR     65  63  93 N6        29.92R
BISMARCK       CLOUDY    68  64  87 N3        29.99R
MINOT          CLOUDY    63  61  93 N10       30.00R FOG
MINOT AFB      CLOUDY    63  63 100 N13       30.00S
GARRISON         N/A     64  62  93 N7        29.99R
WILLISTON      CLOUDY    63  59  87 N7        30.03F
DICKINSON      LGT RAIN  62  61  96 N7        30.00S
HETTINGER      RAIN      61  59  93 NE9       30.05R FOG
$$

 *****  OTHER OBSERVATIONS NORTHEAST NORTH DAKOTA  *****

CITY           SKY/WX    TMP DP  RH WIND       PRES   REMARKS
WALHALLA         N/A     66  66 100 N10       29.94S
LANGDON        CLOUDY    64  63  94 N13       29.96R FOG
CAVALIER       CLOUDY    68  66  94 N9        29.92S
GRAFTON        CLOUDY    66  66 100 N9        29.90S
CANDO          CLOUDY    63  63 100 N9        29.98R
FORT TOTTEN    NOT AVBL
ROLLA          CLOUDY    59  59 100 N12       30.01R FOG
RUGBY          FAIR      64  64 100 NE10      29.98R
 ***** THE ABOVE OBSERVATIONS ARE NON NWS ARE NOT QUALITY
        CONTROLLED AND MAY MIS-REPORT RAIN FOR SNOW...
$$

 *****  OTHER OBSERVATIONS SOUTHEAST NORTH DAKOTA *****

CITY           SKY/WX    TMP DP  RH WIND       PRES   REMARKS
COOPERSTOWN    NOT AVBL
VALLEY CITY    FAIR      64  64 100 N6        29.92R
OAKES          NOT AVBL
GWINNER        SUNNY     70  70 100 N9        29.91S
SHEYENNE NWR     N/A     65  65  99 W2        29.95S
BUFFALO          N/A     64  61  91 NW6         N/A
WYNDMERE       NOT AVBL
 ***** THE ABOVE OBSERVATIONS ARE NON NWS ARE NOT QUALITY
       CONTROLLED AND MAY MIS-REPORT RAIN FOR SNOW...
$$

  *****  WEATHER ACROSS NORTHERN MINNESOTA  *****

CITY           SKY/WX    TMP DP  RH WIND       PRES   REMARKS
FLAG ISLAND    MOCLDY    66  63  88 CALM      29.91S
WARROAD        CLOUDY    66  64  94 E3        29.92S
ROSEAU         PTCLDY    66  61  82 CALM      29.91R
HALLOCK        CLOUDY    66  64  94 NE5       29.90S
THF RVR FALLS  CLOUDY    70  66  88 NE6       29.89F
HALSTAD          N/A     63  61  93 CALM        N/A
FOSSTON        CLOUDY    66  63  88 CALM      29.91S
BAUDETTE       CLOUDY    66  63  90 E3        29.91S
WASKISH        CLOUDY    66  64  94 CALM      29.92R
CROOKSTON      CLEAR     68  66  94 CALM      29.88F FOG
$$
  *****  WEATHER ACROSS CENTRAL AND WEST MINNESOTA  *****

CITY           SKY/WX    TMP DP  RH WIND       PRES   REMARKS
BEMIDJI        CLOUDY    67  65  96 E5        29.92R
PARK RAPIDS    CLOUDY    68  67  96 NE3       29.91S FOG
WADENA         FOG       66  66 100 CALM      29.90S VSB 3/4
DETROIT LAKES  CLOUDY    68  68 100 CALM      29.91S
MOORHEAD       FOG       66  66 100 CALM      29.89S VSB 1/4
FERGUS FALLS   PTCLDY    68  66  94 NE3       29.88S
ELBOW LAKE     FAIR      68  67  98 E3        29.89R
MORRIS MN      FOG       66  66 100 CALM      29.87S VSB 1/4
STAPLES        CLOUDY    66  64  94 CALM      29.90S FOG
WHEATON        FOG       63  63 100 CALM      29.90R VSB<1/4
$$
  *****  WEATHER ELSEWHERE ACROSS MINNESOTA  *****

CITY           SKY/WX    TMP DP  RH WIND       PRES   REMARKS
DULUTH         FOG       63  60  90 E7        29.91S VSB 3/4
INTRNTL FALLS  CLOUDY    63  60  90 E3        29.93S
ELY            CLOUDY    63  59  88 E3        29.94S
CLOQUET        CLOUDY    61  61 100 NE7       29.91S FOG
BRAINERD       FOG       64  64 100 NE7       29.90S VSB 1
HIBBING        CLOUDY    65  60  84 CALM      29.92S
ALEXANDRIA     CLOUDY    68  67  96 NE3       29.91R
SAINT CLOUD    FOG       72  70  93 N3        29.87S VSB 1/2
MINNEAPOLIS    CLOUDY    73  72  96 N5        29.85F
$$

  *****  WEATHER ACROSS SOUTH DAKOTA  *****

CITY           SKY/WX    TMP DP  RH WIND       PRES   REMARKS
SIOUX FALLS    LGT RAIN  69  67  93 CALM      29.89F
BROOKINGS      NOT AVBL
WATERTOWN      FOG       65  65 100 CALM      29.91F VSB 1/4
HURON          CLEAR     62  61  96 CALM      29.91S
SISSETON         N/A     65  65 100 CALM      29.88S
ABERDEEN       CLEAR     64  63  96 NW3       29.90F
MITCHELL       CLEAR     67  65  93 W3        29.92R
PIERRE         PTCLDY    66  63  90 E8        29.91F
MOBRIDGE       MOCLDY    67  63  87 E10       29.91R
RAPID CITY     PTCLDY    63  57  81 N9        30.00R
$$

  *****  SOME WEATHER IN NEARBY STATES *****

CITY           SKY/WX    TMP DP  RH WIND       PRES   REMARKS
GLASGOW MT     CLOUDY    60  57  89 E6        30.07S
GREAT FALLS MT CLOUDY    53  49  86 NE10      30.14F
CHEYENNE WY    CLOUDY    60  46  59 W8        30.20S
SCOTTSBLUFF NE MOCLDY    66  53  63 NW5       30.04F
OMAHA NE       CLOUDY    76  73  91 N7        29.86S
DES MOINES IA  CLOUDY    80  75  84 S7        29.85S
DAVENPORT IA   PTCLDY    73  72  96 E5        29.87F FOG
CHICAGO IL     TSTM      75  71  87 NE3       29.90S
EAU CLAIRE WI  CLEAR     72  71  97 S3        29.84F
LA CROSSE WI   PTCLDY    75  71  87 S7        29.86F
$$

  *****  SOME NATIONAL WEATHER *****

CITY           SKY/WX    TMP DP  RH WIND       PRES   REMARKS
LA GUARDIA NY  CLOUDY    68  64  87 SE3       30.02R
RALEIGH NC     PTCLDY    74  71  91 CALM      30.02F
ATLANTA GA     CLEAR     75  71  87 NW8       30.11F
NEW ORLEANS LA PTCLDY    77  73  87 SW3       30.07F
OKLAHOMA CITY  CLEAR     79  66  64 S10       29.95S
ALBUQUERQUE NM MOCLDY    72  47  40 S9        30.13R
SALT LAKE CITY MOCLDY    63  52  67 E6        30.01F
LOS ANGELES CA PTCLDY    68  61  78 W8        29.96S
BOISE ID       CLEAR     71  44  37 SE12      29.88F
SEATTLE WA     CLEAR     59  51  75 N3        30.00S
$$

*** WEATHER ACROSS MANITOBA...SASKATCHEWAN AND ONTARIO ***
                ***ONTARIO***

CITY           SKY/WX    TMP DP  RH WIND       PRES   REMARKS
GERALDTON      MOCLDY    64  63  94 CALM      30.00F
THUNDER BAY    LGT RAIN  61  59  94 E10       29.98R
SIOUX LOOKOUT  MOCLDY    64  61  88 S3        29.96S
TORONTO        MOCLDY    64  63  94 NW8       29.99R
BIG TROUT LK   MOCLDY    64  61  88 S6        29.95S
PICKLE LAKE    NOT AVBL
DRYDEN         CLOUDY    64  63  94 SE3       29.95F
KENORA         CLOUDY    64  63  94 SE3       29.95S
$$
                *** MANITOBA***

CITY           SKY/WX    TMP DP  RH WIND       PRES   REMARKS
BRANDON        MOCLDY    61  59  94 N6        30.01S
DAUPHIN        CLOUDY    59  57  94 N8        30.04R
ISLAND LAKE    DRIZZLE   59  59 100 N6        29.97R
PILOT MOUND      N/A     61  61 100 N12         N/A
THE PAS        MOCLDY    59  54  82 N8        30.09F
THOMPSON       MOCLDY    52  52 100 N7        30.10R
WINNIPEG       CLOUDY    66  64  94 N10       29.94R
LYNN LAKE      CLOUDY    48  46  93 MISG      30.17R
CHURCHILL      CLOUDY    48  46  93 N18       30.06S
GILLAM         CLOUDY   N/A N/A N/A N14         N/A
$$
                ***SASKATCHEWAN***

CITY           SKY/WX    TMP DP  RH WIND       PRES   REMARKS
ESTEVAN        CLOUDY    61  57  88 NE6       30.06S
KINDERSLEY     MOCLDY    48  46  93 NE7       30.21S
LLOYDMINSTER   CLOUDY    50  45  81 N5        30.25S
PRINCE ALBERT  CLOUDY    54  50  87 NW3       30.19S
REGINA         CLOUDY    59  55  88 N6        30.11



USA.gov is the U.S. government's official web portal to all federal, state and local government web resources and services.